This is the latest recevied weather packets stored in our database for station/object TG8ARF-18. If no packets are shown the sender has not sent any weather packets the latest 10 day(s).
| Time | Temp. | Humidity | Pressure | Rain* | Wind** | Luminosity | Snow |
|---|---|---|---|---|---|---|---|
| 1777781188 | 16.11° C | 85% | 1018 hPa | 0 mm | - | - | - |
| 1777780588 | 15° C | 85% | 1018 hPa | 0 mm | - | - | - |
| 1777779987 | 17.22° C | 86% | 1018 hPa | 0 mm | - | - | - |
| 1777779387 | 16.11° C | 86% | 1018 hPa | 0 mm | - | - | - |
| 1777778786 | 15° C | 86% | 1017 hPa | 0 mm | - | - | - |
| 1777778185 | 17.22° C | 84% | 1017 hPa | 0 mm | - | - | - |
| 1777777585 | 16.11° C | 84% | 1017 hPa | 0 mm | - | - | - |
| 1777776984 | 15° C | 84% | 1017 hPa | 0 mm | - | - | - |
| 1777776383 | 17.22° C | 87% | 1017 hPa | 0 mm | - | - | - |
| 1777775783 | 16.11° C | 87% | 1017 hPa | 0 mm | - | - | - |
| 1777775182 | 15° C | 87% | 1016 hPa | 0 mm | - | - | - |
| 1777774581 | 17.78° C | 86% | 1016 hPa | 0 mm | - | - | - |
| 1777773981 | 16.67° C | 86% | 1016 hPa | 0 mm | - | - | - |
| 1777773380 | 15.56° C | 86% | 1016 hPa | 0 mm | - | - | - |
| 1777772779 | 17.78° C | 88% | 1016 hPa | 0 mm | - | - | - |
| 1777772178 | 17.78° C | 88% | 1016 hPa | 0 mm | - | - | - |
| 1777771578 | 16.67° C | 88% | 1015 hPa | 0 mm | - | - | - |
| 1777770973 | 17.78° C | 85% | 1015 hPa | 0 mm | - | - | - |
| 1777770372 | 17.78° C | 85% | 1015 hPa | 0 mm | - | - | - |
| 1777769771 | 17.78° C | 84% | 1015 hPa | 0 mm | - | - | - |
| 1777769171 | 17.78° C | 84% | 1015 hPa | 0 mm | - | - | - |
| 1777768570 | 18.89° C | 81% | 1015 hPa | 0 mm | - | - | - |
| 1777767970 | 17.78° C | 81% | 1014 hPa | 0 mm | - | - | - |
| 1777767369 | 16.67° C | 81% | 1014 hPa | 0 mm | - | - | - |
| 1777766768 | 18.33° C | 80% | 1014 hPa | 0 mm | - | - | - |
* Rain latest hour (hover to see other rain measurements)
** Current wind speed in m/s (hover to see current wind gust speed)